THOR ABLESTAR DEB, 745

Orbit data source: Space-Track

THOR ABLESTAR DEB, 745 is space debris in LEO originally from a launch on Sat, 28 Sep 1963 UTC launched from the Air Force Western Test Range (AFWTR). Debris objects in space refer to the collection of defunct objects orbiting the Earth. Examples of debris include non-operational satellites, rocket bodies, and fragments generated from explosions, collisions, or faulty payload assembly.

Loading next visibility...
Identifier
745, 1963-038E
Orbit
LEO
Country
Flag of USUS
Related business
Manufacturer
Unknown
Mission
Spacecraft
Bus & Motor
Unknown
Mass
Unknown
Launch date (UTC)
1963-09-28 (63 years ago)
Launch vehicle
Unknown
Launch site
Air Force Western Test Range (AFWTR)
Object type
Payload
Rocket body
Debris
Shape & HBR
Unknown shape, 0.1 m
Radar Cross Section
Medium (>0.1 m² and <1 m²)

Expand to show TLE details & history
Last TLE update: 13 hours ago

TLE from 13 hours ago
0 THOR ABLESTAR DEB
1   745U 63038E   26237.28243433  .00000151  00000-0  20242-3 0  9995
2   745  89.9885 336.0068 0020036  93.3427 291.8383 13.55626981100797
Epoch: 2026-08-25T06:46Z
TLE epoch observation values (Epoch: 2026-08-25T06:46:42.326Z)
Latitude
24.99361°
Longitude
-99.21624°
Altitude
1,049.202 km
Speed
7.332 km/s
True Right ascension
22h 24m 02s
True Declination
24° 52' 02"
Sunlit
Object was in full shadow at epoch
Visualization orbit readout
Latitude
Unknown
Longitude
Unknown
Altitude
Unknown
Speed
Unknown
Apparent Right ascension
Unknown
Apparent Declination
Unknown
Sunlit
N/A
Visualization observer readout
Local Sidereal Time
10:58:30
Azimuth
Unknown
Elevation
Unknown
Doppler factor
Unknown
Orbital elements
Apogee altitude
1,063.549 km
Perigee altitude
1,033.789 km
Semi-major axis
7,426.806 km
Eccentricity
0.002
Inclination
89.9885°
RAAN
336.0068°
Arg. of periapsis
93.3427°
True anomaly
291.62498°
Mean anomaly
291.8383°
Eccentric anomaly
291.73166°
Mean motion
3.3911 °/min
Orbital period
106.16 mins
BSTAR
0.00020242
Loading maneuver chart data...
Computing Atmospheric mass density...

Documentation

Showing up to 5 results
|